Location: Unspecified
(0.0000°N, 0.0000°E)
Time: 19:16:23
(UTC+00:00)

ANGELS - Visible Passes

Search period start: 14 January 2025 00:00
Search period end: 24 January 2025 00:00
Orbit: 458 x 468 km, 97.5° (Epoch: 14 January)

Date Brightness Start Highest point End Pass type
(mag) Time Alt. Az. Time Alt. Az. Time Alt. Az.
15 Jan ? 19:08:34 10° NW 19:10:22 14° WNW 19:12:11 10° WSW visible
16 Jan ? 18:36:10 10° N 18:39:30 45° W 18:42:50 10° SSW visible
18 Jan ? 19:08:32 10° NW 19:10:21 14° WNW 19:12:11 10° WSW visible
19 Jan ? 18:36:02 10° N 18:39:21 46° WNW 18:42:42 10° SSW visible
21 Jan ? 19:08:05 10° NW 19:09:57 14° WNW 19:11:51 10° WSW visible
22 Jan ? 18:35:30 10° N 18:38:50 47° W 18:42:11 10° SSW visible
